Regional Weather Roundup
Issued by NWS Charleston, SC

Current Version | Previous Version | Graphics & Text | Print | Product List | Glossary On
Versions: 1 2 3 4 5 6 7 8 9 10 11 12 13 14 15 16 17 18 19 20 21 22 23 24 25 26 27 28 29 30 31 32 33 34 35 36 37 38 39 40 41 42 43 44 45 46 47 48 49 50
000
ASUS42 KCHS 211643
RWRCHS

REGIONAL WEATHER ROUNDUP
NATIONAL WEATHER SERVICE CHARLESTON SC
1200 PM EDT THU SEP 21 2017

NOTE: "FAIR" INDICATES FEW OR NO CLOUDS BELOW 12,000 FEET WITH NO
SIGNIFICANT WEATHER AND/OR OBSTRUCTIONS TO VISIBILITY.

NOT ALL STATIONS ARE QUALITY CONTROLLED. USE DATA WITH CAUTION...
ESPECIALLY DEWPOINT OBSERVATIONS.

SCZ027-030-031-034>040-042>050-211700-
...SOUTHEAST SOUTH CAROLINA...

CITY           SKY/WX    TMP DP  RH WIND       PRES   REMARKS
N CHARLESTON   MOSUNNY   92  73  53 N3        30.04F HX 100
WATERFRONT PRK   N/A     87  73  62 VRB3      29.89F HX  94
JOHNS ISLAND   FAIR      86  73  66 CALM      30.04F HX  93
PINOPOLIS        N/A     84  73  70 CALM      29.98F HX  91
MONCKS CORNER  FAIR      86  68  54 N3        30.04F
SUMMERVILLE    FAIR      88  72  58 CALM      30.05S HX  94
BEAUFORT MCAS  MOSUNNY   87  69  54 CALM      30.05F HX  91
BEAUFORT ARPT  FAIR      84  72  65 CALM      30.04F
HILTON HEAD IS SUNNY     86  73  66 SE3       30.06S HX  93
WALTERBORO     MOSUNNY   88  72  58 CALM      30.05  HX  94
ALLENDALE      NOT AVBL

...SOUTHERN MIDLANDS AND PEE DEE...

CITY           SKY/WX    TMP DP  RH WIND       PRES   REMARKS
GEORGETOWN     FAIR      86  72  62 CALM      30.05F HX  92
KINGSTREE      FAIR      88  70  55 CALM      30.04  HX  92
ORANGEBURG     MOSUNNY   89  69  51 NE6       30.04F HX  93
BARNWELL       FAIR      91  70  49 E5        30.04F HX  97
AIKEN          FAIR      86  64  48 CALM      30.08F
MANNING        FAIR      88  70  55 E21G100   30.03F HX  92
COLUMBIA       MOSUNNY   90  67  46 CALM      30.04S HX  93
SUMTER         MOSUNNY   88  68  51 NW6       30.02F HX  92
FLORENCE       SUNNY     86  71  60 CALM      30.04F HX  91
MYRTLE BEACH   MOSUNNY   84  75  74 SE13      30.04F HX  92
N MYRTLE BEACH SUNNY     88  71  57 CALM      30.03F HX  94

$$

GAZ063-065-086>088-099>101-113>116-118-119-134>141-150-211700-
...SOUTHEAST GEORGIA...

CITY           SKY/WX    TMP DP  RH WIND       PRES   REMARKS
SAVANNAH ARPT  PTSUNNY   88  69  53 S5        30.05F HX  92
HUNTER AAF     SUNNY     86  72  63 N3        30.03S HX  92
FORT STEWART   MOSUNNY   86  68  54 CALM      30.03F
STATESBORO     MOSUNNY   87  68  53 NE3       30.05F HX  90
SYLVANIA       SUNNY     88  75  65 CALM      30.06S HX  97
CLAXTON        FAIR      88  74  62 CALM      30.05S HX  97

...CSRA...CENTRAL AND FAR SOUTHEAST GEORGIA...

CITY           SKY/WX    TMP DP  RH WIND       PRES   REMARKS
THOMSON        SUNNY     87  67  52 S3        30.11F HX  90
AUGUSTA-BUSH   SUNNY     91  69  48 NE5       30.04F HX  96
AUGUSTA-DANIEL SUNNY     90  66  45 N6        30.06F HX  92
SWAINSBORO     FAIR      88  72  58 CALM      30.06F HX  94
VIDALIA        SUNNY     88  73  62 CALM      30.05F HX  96
EASTMAN        FAIR      89  59  37 E5        30.07F
HAZLEHURST     FAIR      88  64  44 E5        30.04F
ALMA           SUNNY     87  72  60 VRB3      30.05F HX  93
WAYCROSS       SUNNY     86  70  59 CALM      30.05S HX  90
JESUP          NOT AVBL
BAXLEY         FAIR      86  72  62 E5        30.04F HX  92
BRUNSWICK      SUNNY     86  68  54 S3        30.06S
SAINT SIMONS   PTSUNNY   84  74  71 SW3       30.05F HX  91

$$

SCZ027-028-034-036>038-045-046-048>050-GAZ119-141-211700-
...LAKE AND SUPPLEMENTAL COASTAL OBSERVATIONS...

STATION/POSITION TIME  TEMP    WIND        PRES    WAVE   SWELL
                       AIR SEA DIR/SP/G            HT/PER HT/PER/DIR
                 (UTC) (F)     (DEG/KT/KT) (MB)    (FT/S) (FT/S/D)
WINYAH BAY       1545   85     180/  2     1017.0S
LAKE MURRAY      1620   87     170/  1/  3 1016.3
ACE BASIN NERRS  1545   86     190/  1     1018.0S
FORT PULASKI     1600   83 80  200/  3/  5 1018.0
SAPELO ISLAND    1600   85        CALM     1018.0

$$

ANZ835-935-AMZ111-154-330-350-352-354-370-450-454-472-211700-
...C-MAN AND BUOY OBSERVATIONS...

STATION/POSITION TIME  TEMP    WIND        PRES    WAVE   SWELL
                       AIR SEA DIR/SP/G            HT/PER HT/PER/DIR
                 (UTC) (F)     (DEG/KT/KT) (MB)    (FT/S) (FT/S/D)
BUOY 41004       1610   80     300/  2/  4 1017.5
BUOY 41008       1550   80 81  340/  6/  8 1017.6S   2/12   2/110/12
FOLLY BEACH CMAN 1600   81     180/  7/  8 1018.2R
CAPERS NEARSHORE 1608   81 80  200/  6/  8 1017.3F
FRIPP NEARSHORE  1608   80     220/  2/  4 1026.4R


STATION/POSITION TIME  TEMP    WIND        PRES    WAVE   SWELL
                       AIR SEA DIR/SP/G            HT/PER HT/PER/DIR
                 (UTC) (F)     (DEG/KT/KT) (MB)    (FT/S) (FT/S/D)
5E ST. MARYS GA  1600      84                N/A     2/13   2/ 90/13
FRYING PAN BUOY  1610   80     300/  6/  8 1017.0
BUOY 41025       1550   77 77  360/  4/  6 1016.7F   4/ 9   5/ 70/ 9
CAPE LOOKOUT NC  1600   82      60/  2/  3 1016.7R
BUOY 41002       1550   78 81   20/  4/  6 1017.7S   6/11   5/ 30/11
BUOY 41010       1610      85   50/ 10/ 12 1017.0
ST AUGUSTINE FL  1600   80 82  360/  8/  9 1017.8F


$$




USA.gov is the U.S. government's official web portal to all federal, state and local government web resources and services.